Hourly Weather Ruy Barbosa

Today, 22 April, Thursday

Time Temperature Precipitation Wind Pressure Humidity
00:00 +22°C° 0.2 mm 0 mps 729 mmHg 86%
01:00 +22°C° 0.7 mm 0 mps 729 mmHg 89%
02:00 +21°C° 0.7 mm 0 mps 729 mmHg 93%
03:00 +23°C° 0 mm 1 mps 729 mmHg 95%
04:00 +21°C° 0.1 mm 0 mps 729 mmHg 95%
05:00 +20°C° 0.1 mm 0 mps 729 mmHg 95%
06:00 +20°C° 0.1 mm 0 mps 730 mmHg 94%
07:00 +24°C° 0 mm 1 mps 730 mmHg 88%
08:00 +26°C° 0 mm 1 mps 730 mmHg 81%
09:00 +27°C° 0 mm 1 mps 731 mmHg 74%
10:00 +30°C° 0.1 mm 1 mps 730 mmHg 64%
11:00 +32°C° 0.1 mm 1 mps 730 mmHg 55%
12:00 +34°C° 0.1 mm 1 mps 729 mmHg 45%
13:00 +33°C° 0.1 mm 1 mps 728 mmHg 49%
14:00 +32°C° 0.1 mm 1 mps 728 mmHg 52%
15:00 +31°C° 0.1 mm 1 mps 727 mmHg 55%
16:00 +30°C° 0.2 mm 1 mps 728 mmHg 63%
17:00 +28°C° 0.2 mm 1 mps 728 mmHg 71%
18:00 +27°C° 0.2 mm 1 mps 728 mmHg 79%
19:00 +26°C° 1.4 mm 1 mps 729 mmHg 84%
20:00 +25°C° 1.4 mm 1 mps 729 mmHg 90%
21:00 +22°C° 1.4 mm 0 mps 730 mmHg 95%
22:00 +24°C° 1.2 mm 1 mps 730 mmHg 95%
23:00 +24°C° 1.2 mm 1 mps 730 mmHg 95%

Tomorrow, 23 April, Friday

Time Temperature Precipitation Wind Pressure Humidity
00:00 +24°C° 1.2 mm 1 mps 730 mmHg 96%
01:00 +24°C° 0.6 mm 1 mps 730 mmHg 96%
02:00 +24°C° 0.6 mm 1 mps 730 mmHg 96%
03:00 +21°C° 0.6 mm 0 mps 730 mmHg 97%
04:00 +21°C° 0.1 mm 0 mps 730 mmHg 97%
05:00 +21°C° 0.1 mm 0 mps 730 mmHg 97%
06:00 +21°C° 0.1 mm 0 mps 730 mmHg 97%
07:00 +24°C° 0.1 mm 1 mps 731 mmHg 92%
08:00 +26°C° 0.1 mm 1 mps 731 mmHg 87%
09:00 +27°C° 0.1 mm 1 mps 732 mmHg 82%
10:00 +28°C° 0.3 mm 2 mps 731 mmHg 76%
11:00 +29°C° 0.3 mm 2 mps 731 mmHg 70%
12:00 +30°C° 0.3 mm 2 mps 730 mmHg 63%
13:00 +30°C° 1.3 mm 2 mps 729 mmHg 69%
14:00 +29°C° 1.3 mm 2 mps 729 mmHg 75%
15:00 +28°C° 1.3 mm 2 mps 728 mmHg 81%
16:00 +27°C° 1.5 mm 1 mps 728 mmHg 85%
17:00 +26°C° 1.5 mm 1 mps 729 mmHg 89%
18:00 +25°C° 1.5 mm 1 mps 729 mmHg 93%
19:00 +24°C° 0.4 mm 1 mps 729 mmHg 94%
20:00 +24°C° 0.4 mm 1 mps 730 mmHg 95%
21:00 +24°C° 0.4 mm 1 mps 730 mmHg 96%
22:00 +24°C° 0.1 mm 1 mps 730 mmHg 97%
23:00 +24°C° 0.1 mm 1 mps 730 mmHg 98%

Day after tomorrow, 24 April, Saturday

Time Temperature Precipitation Wind Pressure Humidity
00:00 +23°C° 0.1 mm 1 mps 730 mmHg 99%
01:00 +23°C° 0.1 mm 1 mps 730 mmHg 99%
02:00 +23°C° 0.1 mm 1 mps 730 mmHg 99%
03:00 +23°C° 0.1 mm 1 mps 729 mmHg 99%
04:00 +23°C° 0.2 mm 1 mps 730 mmHg 99%
05:00 +23°C° 0.2 mm 1 mps 730 mmHg 98%
06:00 +23°C° 0.2 mm 1 mps 730 mmHg 98%
07:00 +24°C° 0.3 mm 1 mps 731 mmHg 96%
08:00 +24°C° 0.3 mm 1 mps 731 mmHg 94%
09:00 +25°C° 0.3 mm 1 mps 732 mmHg 92%
10:00 +27°C° 0.2 mm 1 mps 731 mmHg 83%
11:00 +28°C° 0.2 mm 1 mps 731 mmHg 74%
12:00 +30°C° 0.2 mm 1 mps 730 mmHg 66%
13:00 +30°C° 0.2 mm 1 mps 729 mmHg 65%
14:00 +30°C° 0.2 mm 1 mps 729 mmHg 64%
15:00 +30°C° 0.2 mm 1 mps 728 mmHg 63%
16:00 +29°C° 0.4 mm 1 mps 728 mmHg 71%
17:00 +27°C° 0.4 mm 1 mps 729 mmHg 80%
18:00 +25°C° 0.4 mm 1 mps 729 mmHg 88%
19:00 +25°C° 0.2 mm 1 mps 729 mmHg 90%
20:00 +24°C° 0.2 mm 1 mps 730 mmHg 92%
21:00 +24°C° 0.2 mm 1 mps 730 mmHg 95%
22:00 +24°C° 0.2 mm 1 mps 730 mmHg 96%
23:00 +23°C° 0.2 mm 1 mps 730 mmHg 97%

25 April, Sunday

Time Temperature Precipitation Wind Pressure Humidity
00:00 +23°C° 0.2 mm 1 mps 730 mmHg 98%
01:00 +23°C° 0 mm 1 mps 730 mmHg 98%
02:00 +21°C° 0 mm 0 mps 729 mmHg 98%
03:00 +20°C° 0 mm 0 mps 729 mmHg 99%
04:00 +20°C° 0 mm 0 mps 730 mmHg 98%
05:00 +21°C° 0 mm 0 mps 730 mmHg 98%
06:00 +21°C° 0 mm 0 mps 730 mmHg 97%
07:00 +22°C° 0 mm 0 mps 731 mmHg 93%
08:00 +22°C° 0 mm 0 mps 731 mmHg 89%
09:00 +23°C° 0 mm 0 mps 732 mmHg 84%
10:00 +27°C° 0 mm 1 mps 731 mmHg 75%
11:00 +29°C° 0 mm 1 mps 730 mmHg 65%
12:00 +31°C° 0 mm 1 mps 730 mmHg 56%
13:00 +31°C° 0 mm 1 mps 729 mmHg 55%
14:00 +32°C° 0 mm 2 mps 728 mmHg 54%
15:00 +32°C° 0 mm 2 mps 728 mmHg 53%
16:00 +30°C° 0.1 mm 2 mps 728 mmHg 60%
17:00 +28°C° 0.1 mm 1 mps 728 mmHg 67%
18:00 +27°C° 0.1 mm 1 mps 728 mmHg 75%
19:00 +26°C° 0 mm 1 mps 728 mmHg 77%
20:00 +26°C° 0 mm 1 mps 729 mmHg 80%
21:00 +25°C° 0 mm 2 mps 729 mmHg 82%
22:00 +24°C° 0 mm 1 mps 729 mmHg 87%
23:00 +24°C° 0 mm 1 mps 730 mmHg 92%

26 April, Monday

Time Temperature Precipitation Wind Pressure Humidity
00:00 +23°C° 0 mm 1 mps 730 mmHg 97%
01:00 +23°C° 0 mm 1 mps 730 mmHg 97%
02:00 +23°C° 0 mm 1 mps 729 mmHg 98%
03:00 +21°C° 0 mm 0 mps 729 mmHg 98%
04:00 +21°C° 0 mm 0 mps 729 mmHg 96%
05:00 +23°C° 0 mm 1 mps 730 mmHg 95%
06:00 +23°C° 0 mm 1 mps 730 mmHg 93%
07:00 +24°C° 0 mm 1 mps 730 mmHg 89%
08:00 +25°C° 0 mm 1 mps 731 mmHg 84%
09:00 +25°C° 0 mm 1 mps 731 mmHg 80%
10:00 +27°C° 0 mm 1 mps 731 mmHg 72%
11:00 +28°C° 0 mm 1 mps 730 mmHg 65%
12:00 +30°C° 0 mm 1 mps 730 mmHg 57%
13:00 +31°C° 0 mm 1 mps 729 mmHg 52%
14:00 +32°C° 0 mm 2 mps 728 mmHg 47%
15:00 +34°C° 0 mm 2 mps 727 mmHg 42%
16:00 +31°C° 0 mm 2 mps 728 mmHg 48%
17:00 +29°C° 0 mm 1 mps 728 mmHg 53%
18:00 +27°C° 0 mm 1 mps 728 mmHg 59%
19:00 +27°C° 0 mm 1 mps 729 mmHg 65%
20:00 +26°C° 0 mm 2 mps 729 mmHg 71%
21:00 +25°C° 0 mm 2 mps 730 mmHg 77%
22:00 +24°C° 0.1 mm 2 mps 730 mmHg 84%
23:00 +23°C° 0.1 mm 1 mps 730 mmHg 91%

27 April, Tuesday

Time Temperature Precipitation Wind Pressure Humidity
00:00 +23°C° 0.1 mm 1 mps 730 mmHg 98%
01:00 +23°C° 0 mm 1 mps 730 mmHg 96%
02:00 +23°C° 0 mm 1 mps 730 mmHg 94%
03:00 +23°C° 0 mm 2 mps 729 mmHg 92%
04:00 +23°C° 0 mm 1 mps 729 mmHg 91%
05:00 +23°C° 0 mm 1 mps 730 mmHg 90%
06:00 +23°C° 0 mm 1 mps 730 mmHg 90%
07:00 +24°C° 0 mm 1 mps 730 mmHg 84%
08:00 +25°C° 0 mm 1 mps 731 mmHg 79%
09:00 +25°C° 0 mm 1 mps 731 mmHg 73%
10:00 +27°C° 0 mm 2 mps 731 mmHg 65%
11:00 +29°C° 0 mm 2 mps 730 mmHg 57%
12:00 +31°C° 0 mm 2 mps 730 mmHg 48%
13:00 +31°C° 0 mm 2 mps 729 mmHg 45%
14:00 +32°C° 0 mm 2 mps 728 mmHg 43%
15:00 +34°C° 0 mm 2 mps 728 mmHg 40%
16:00 +30°C° 0 mm 1 mps 728 mmHg 46%
17:00 +28°C° 0 mm 1 mps 728 mmHg 53%
18:00 +26°C° 0 mm 1 mps 728 mmHg 60%
19:00 +25°C° 0 mm 1 mps 729 mmHg 66%
20:00 +24°C° 0 mm 1 mps 729 mmHg 73%
21:00 +24°C° 0 mm 1 mps 730 mmHg 79%
22:00 +23°C° 0 mm 1 mps 730 mmHg 85%
23:00 +22°C° 0 mm 1 mps 730 mmHg 91%
Show more